STARLINK-36296, 68380

Orbit data source: Space-Track

STARLINK-36296, 68380 is a payload satellite owned by SpaceX/Seattle (US) in SSO that was launched on Thu, 26 Mar 2026 UTC via an FALCON 9 launch vehicle from the Air Force Western Test Range (AFWTR). Payload-class satellites include a variety of spacecraft equipped with specific instruments for various scientific and technological missions. These include communications satellites like Starlink; space stations such as the ISS; scientific satellites like the Hubble; Earth observation satellites from companies like Planet Labs, Umbra, and HawkEye 360; GPS; miniature CubeSats for education and research; and military/defense satellites.

Loading next visibility...
Identifier
68380, 2026-063A
Orbit
SSO
Country
Flag of USUS
Related business
Manufacturer
SpaceX/Seattle
Mission
Operational spacecraft
Bus & Motor
STARLINK V2MO, Unknown motor
Mass
575 kg wet, ~530 kg dry
Launch date (UTC)
2026-03-26 (3 months ago)
Launch vehicle
FALCON 9
Launch site
Air Force Western Test Range (AFWTR)
Object type
Payload
Rocket body
Debris
Shape & HBR
Unknown shape, 17.7 m
Radar Cross Section
Large (>1 m²)

Expand to show TLE details & history
Last TLE update: 7 hours ago

TLE from 7 hours ago
0 STARLINK-36296
1 68380U 26063A   26165.91670139  .00071291  00000-0  13021-2 0  9997
2 68380  97.2860 310.5588 0001024 101.1426 146.6536 15.49157883  6009
Epoch: 2026-06-14T22:00Z
TLE epoch observation values (Epoch: 2026-06-14T22:00:03.000Z)
Latitude
-66.87285°
Longitude
-119.9836°
Altitude
445.113 km
Speed
7.643 km/s
True Right ascension
07h 32m 57s
True Declination
-66° 44' 33"
Sunlit
Object was in daylight at epoch
Visualization orbit readout
Latitude
Unknown
Longitude
Unknown
Altitude
Unknown
Speed
Unknown
Apparent Right ascension
Unknown
Apparent Declination
Unknown
Sunlit
N/A
Visualization observer readout
Local Sidereal Time
15:41:37
Azimuth
Unknown
Elevation
Unknown
Doppler factor
Unknown
Orbital elements
Apogee altitude
416.806 km
Perigee altitude
415.414 km
Semi-major axis
6,794.247 km
Eccentricity
0.0001
Inclination
97.286°
RAAN
310.5588°
Arg. of periapsis
101.1426°
True anomaly
146.66005°
Mean anomaly
146.6536°
Eccentric anomaly
146.65682°
Mean motion
3.87553 °/min
Orbital period
92.89 mins
BSTAR
0.0013021
Loading maneuver chart data...
Computing Atmospheric mass density...
Loading historical data...
Loading historical data...
Loading historical data...
Loading historical data...
Loading historical data...
Loading historical data...
Loading historical data...

Documentation

Showing up to 5 results
|